Flag for Austria Weather past 2 weeks in Kapfenberg, Styria, Austria

36 °F

Broken clouds.

Feels Like: 36 °F
Forecast: 24 / 36 °F
Wind: 2 mph from North

Location: Zeltweg

Current Time: Nov 26, 2015 at 4:24:24 PM

Latest Report: Nov 26, 2015 at 3:50 PM

Visibility: 15 mi

Pressure: 29.83 "Hg (28.02 "Hg at 504m altitude)

Humidity: 75%

Dew point: 28 °F

Location of KapfenbergLocation

Historic Weather in Kapfenberg — Graph


Kapfenberg temperature yesterday

Maximum temperature yesterday: 30 °F (at 1:50 PM)
Minimum temperature yesterday: 14 °F (at 5:50 AM)
Average temperature yesterday: 25 °F

Past Weeks' High & Low Weather Summary

High70 °F (Nov 18, 1:20 PM)100% (Nov 12, 4:50 AM)30.39 "Hg (Nov 12, 4:50 AM)
Low14 °F (Nov 24, 6:50 AM)18% (Nov 18, 1:20 PM)29.33 "Hg (Nov 21, 5:50 PM)
Average39 °F74%29.99 "Hg
* Reported Nov 11 2:20 PM — Nov 26 2:50 PM, Kapfenberg, Weather by CustomWeather, © 2015

Note: Actual official high and low records may vary slightly from our data, if they occured in-between our weather recording intervals... More about our weather records


Kapfenberg weather history for previous 24 hours

Time TempWeatherWind HumidityBarometerVisibility
2:50 PM
Thu, Nov 26
36 °FBroken clouds.3 mph81%29.80 "Hg12 mi
2:20 PM36 °FBroken clouds.2 mph75%29.77 "Hg12 mi
1:50 PM36 °FBroken clouds.2 mph75%29.77 "Hg9 mi
1:20 PM34 °FBroken clouds.2 mph81%29.77 "Hg6 mi
12:50 PM34 °FBroken clouds.1 mph81%29.77 "Hg6 mi
12:20 PM32 °FBroken clouds.2 mph87%29.77 "Hg6 mi
11:50 AM32 °FBroken clouds.2 mph87%29.77 "Hg6 mi
11:20 AM32 °FBroken clouds.2 mph80%29.77 "Hg6 mi
10:50 AM30 °FBroken clouds.1 mph86%29.74 "Hg6 mi
10:20 AM30 °FBroken clouds.1 mph80%29.74 "Hg5 mi
9:50 AM28 °FBroken clouds.1 mph86%29.74 "Hg5 mi
9:20 AM28 °FBroken clouds.1 mph86%29.71 "Hg4 mi
8:50 AM28 °FBroken clouds.1 mph86%29.71 "Hg4 mi
8:20 AM28 °FBroken clouds.2 mph86%29.71 "Hg4 mi
7:50 AM27 °FSleet. Cloudy.1 mph93%29.71 "Hg5 mi
7:20 AM27 °FSleet. Ice fog.1 mph93%29.68 "Hg5 mi
6:50 AM27 °FPassing clouds.1 mph93%29.68 "Hg5 mi
6:20 AM27 °FPassing clouds.1 mph93%29.68 "Hg5 mi
5:50 AM27 °FLight snow. Passing clouds.1 mph93%29.65 "Hg5 mi
4:50 AM27 °FLight snow. Partly cloudy.1 mph93%29.65 "Hg5 mi
9:50 PM
Wed, Nov 25
28 °FLight snow. Mostly cloudy.1 mph80%29.71 "Hg6 mi
8:50 PM28 °FPartly cloudy.1 mph80%29.71 "Hg6 mi
7:50 PM28 °FPartly cloudy.1 mph80%29.71 "Hg6 mi
6:50 PM28 °FPartly cloudy.1 mph80%29.71 "Hg12 mi
5:50 PM28 °FMostly cloudy.1 mph80%29.71 "Hg16 mi
4:50 PM28 °FPassing clouds.2 mph74%29.74 "Hg16 mi
4:20 PM28 °FPassing clouds.2 mph80%29.74 "Hg16 mi
Weather by CustomWeather, © 2015

See weather overviewHow to use our weather pages